Regional Weather Roundup
Issued by NWS

Home | Current Version | Previous Version | Text Only | Print | Product List | Glossary Off
Versions: 1 2 3 4 5 6 7 8 9 10 11 12 13 14 15 16 17 18 19 20 21 22 23 24 25 26 27 28 29 30 31 32 33 34 35 36 37 38 39 40 41 42 43 44 45 46 47 48 49 50

616
ASUS45 KCYS 262110
RWRWY

WYOMING REGIONAL WEATHER ROUNDUP
NATIONAL WEATHER SERVICE CHEYENNE WY
300 PM MDT SUN MAR 26 2017

NOTE:  "FAIR" INDICATES FEW OR NO CLOUDS BELOW 12,000 FEET
WITH NO SIGNIFICANT WEATHER AND/OR OBSTRUCTIONS TO VISIBILITY.

WYZ001-262200-
YELLOWSTONE NATIONAL PARK

CITY           SKY/WX    TMP DP  RH WIND       PRES   REMARKS
LK YELLOWSTONE   N/A     38  15  39 VRB3      29.96S
W YELLOWSTONE  NOT AVBL

$$
WYZ002>013-054>058-071-098>099-262200-
NORTHERN WYOMING

CITY           SKY/WX    TMP DP  RH WIND       PRES   REMARKS
JACKSON        MOSUNNY   45  21  39 S15       29.96F
CODY           PTSUNNY   53  18  25 VRB6      29.88F
GREYBULL       FAIR      56  24  29 VRB6      29.89F
WORLAND        FAIR      53  25  33 NW5       29.90F
SHERIDAN       FAIR      55  27  34 CALM      29.90F
BUFFALO        CLOUDY    51  22  31 VRB3      29.93F
GILLETTE       FAIR      52  32  46 N8        29.92F
HULETT         MOCLDY    48  34  57 CALM      29.93F
NEWCASTLE      CLOUDY    43  34  70 N13G22    29.93S

$$
WYZ014>020-022>026-101>103-262200-
CENTRAL WYOMING

CITY           SKY/WX    TMP DP  RH WIND       PRES   REMARKS
BIG PINEY      FAIR      43  19  38 SW9       29.99F
PINEDALE       FAIR      37  18  44 NW6       30.00F WCI  33
DUBOIS         FAIR      45  14  29 NW16G24   29.91F
LANDER         FAIR      52  26  36 SE14      29.89F
RIVERTON       FAIR      50  27  40 SE8       29.92F
CASPER         PTSUNNY   47  33  58 VRB5      29.94F
DOUGLAS        CLOUDY    47  35  63 W8        29.95F

$$
WYZ021-027>030-104>119-262200-
SOUTHERN WYOMING

CITY           SKY/WX    TMP DP  RH WIND       PRES   REMARKS
EVANSTON       FAIR      42  19  39 W10       30.01F
KEMMERER         N/A     37  25  60 W13       30.01S WCI  29
FORT BRIDGER   FAIR      46  22  38 NW12      30.02F
ROCK SPRINGS   FAIR      46  21  37 W12       29.99F
DIXON            N/A     47  26  44 S3        30.01F
RAWLINS        CLOUDY    47  27  45 W15       29.96F
SARATOGA       CLOUDY    45  28  53 W13G20    29.97F
LARAMIE        CLOUDY    43  29  57 N15       29.94S
CHEYENNE       PTSUNNY   45  34  65 N21G26    29.92F
TORRINGTON     CLOUDY    47  35  63 N12       29.93R
PINE BLUFFS    CLOUDY    43  36  75 NW18G24   29.94R

$$




USA.gov is the U.S. government's official web portal to all federal, state and local government web resources and services.